Regional Weather Roundup
Issued by NWS

Home | Current Version | Previous Version | Graphics & Text | Print | Product List | Glossary On
Versions: 1 2 3 4 5 6 7 8 9 10 11 12 13 14 15 16 17 18 19 20 21 22 23 24 25 26 27 28 29 30 31 32 33 34 35 36 37 38 39 40 41 42 43 44 45 46 47 48 49 50
000
ASUS43 KIND 051109
RWRIN

WEATHER ROUNDUP FOR INDIANA
NATIONAL WEATHER SERVICE INDIANAPOLIS IN
700 AM EDT THU MAY 05 2016

NOTE: "FAIR" INDICATES FEW OR NO CLOUDS BELOW 12,000 FEET WITH NO
SIGNIFICANT WEATHER AND/OR OBSTRUCTIONS TO VISIBILITY.

* - STATION DOES NOT REPORT WEATHER SUCH AS PRECIPITATION OR FOG.

+ - STATION NOT QUALITY CONTROLLED BY THE NATIONAL WEATHER SERVICE.
    USE DATA WITH CAUTION...ESPECIALLY DEWPOINT AND RELATIVE
    HUMIDITY OBSERVATIONS.

INZ001>003-010>013-019-020-051200-
NORTHWEST INDIANA

CITY           SKY/WX    TMP DP  RH WIND       PRES   REMARKS
GARY /AIRPORT/ CLOUDY    43  43 100 N17G29    29.91R
KNOX *+        CLOUDY    43  37  81 N10       29.84R
LA PORTE +     CLOUDY    45  45 100 N13       29.86R
MICHIGAN CITY+ CLOUDY    41  41 100 N7        29.88R
MONTICELLO +   CLOUDY    43  39  87 N9        29.84R
RENSSELAER +   CLOUDY    43  41  93 N12       29.87R
VALPARAISO     CLOUDY    41  39  93 N14G21    29.87R

$$

LMZ046-743>745-051200-
SOUTHERN LAKE MICHIGAN

STATION/POSITION TIME  TEMP    WIND        PRES    WAVE
                       AIR SEA DIR/SP/G            HT
                 (UTC) (F)     (DEG/KT/KT) (MB)    (FT)
BURNS HARBOR     1014   43      10/ 18/ 24 1012.2R
MICHIGAN CITY    1000   42     360/ 23/ 25   N/A

$$

INZ004-005-014>016-021>024-051200-
NORTH CENTRAL INDIANA

CITY           SKY/WX    TMP DP  RH WIND       PRES   REMARKS
ELKHART        CLOUDY    46  46 100 N5        29.84
GOSHEN         CLOUDY    46  43  89 N12       29.82R
LOGANSPORT +   CLOUDY    43  41  93 N5        29.83R
PERU/GRISSOM   CLOUDY    41  41 100 N3        29.80R
ROCHESTER +    CLOUDY    46  46 100 N7        29.82R FOG
SOUTH BEND     CLOUDY    44  42  93 N13       29.85R
WARSAW +       CLOUDY    43  43 100 N6        29.81R

$$

INZ006>009-017-018-025>027-051200-
NORTHEAST INDIANA

CITY           SKY/WX    TMP DP  RH WIND       PRES   REMARKS
ANGOLA *+      CLOUDY    45  45 100 N9        29.80R
AUBURN +       CLOUDY    45  43  93 NW6       29.80R
FORT WAYNE     LGT RAIN  42  39  89 NW6       29.80R
HUNTINGTON +   CLOUDY    40  39  97 CALM      29.80R

$$

INZ028-029-035-036-043>045-051>053-051200-
WEST CENTRAL INDIANA

CITY           SKY/WX    TMP DP  RH WIND       PRES   REMARKS
CRAWFORDSVL +  CLOUDY    40  40 100 N12       29.82R
GREENCASTLE +  CLOUDY    41  41 100 N12       29.81R
LAFAYETTE      CLOUDY    43  39  86 N7G18     29.84R
TERRE HAUTE    CLOUDY    44  38  79 N13G23    29.83R

$$

INZ030>032-037>040-046>048-054>057-064-065-051200-
CENTRAL INDIANA

CITY           SKY/WX    TMP DP  RH WIND       PRES   REMARKS
CP ATTERBURY + CLOUDY    43  41  93 N8        29.78R
COLUMBUS       CLOUDY    41  41 100 N10       29.78
FISHERS *+     CLOUDY    39  39 100 N7        29.80R
FRANKFORT +      N/A     43  41  95 N9        29.83R
GREENWOOD *+   CLOUDY    41  41 100 N8        29.79R
INDIANAPOLIS   CLOUDY    43  39  86 N12       29.78R
-EAGLE CREEK   CLOUDY    43  40  89 N13       29.79R
KOKOMO *+      CLOUDY    41  37  87 NE6       29.81R
MARION +       MOCLDY    40  38  93 N6        29.81R
SHELBYVILLE    LGT RAIN  44  40  85 N9        29.77R FOG
ZIONSVILLE +   CLOUDY    41  38  90 NE13      29.80R

$$

INZ033-034-041-042-049-050-058-059-051200-
EAST CENTRAL INDIANA

CITY           SKY/WX    TMP DP  RH WIND       PRES   REMARKS
MUNCIE         CLOUDY    42  38  85 NE8       29.79R

$$

INZ060-061-067>069-081>083-085>088-051200-
SOUTHWEST INDIANA

CITY           SKY/WX    TMP DP  RH WIND       PRES   REMARKS
EVANSVILLE     CLEAR     47  40  76 NW8       29.81R
HUNTINGBURG *+ MOCLDY    45  37  76 N14       29.79R
WASHINGTON +   CLOUDY    45  39  81 N9        29.81R

$$

INZ062-063-066-070>080-084-089>092-051200-
SOUTH CENTRAL AND SOUTHEAST INDIANA

CITY           SKY/WX    TMP DP  RH WIND       PRES   REMARKS
BEDFORD +      DRIZZLE   43  43 100 CALM      29.78R
BLOOMINGTON    CLOUDY    42  39  89 N8        29.79R FOG
MADISON *+     CLOUDY    43  39  87 N3        29.78R
NORTH VERNON + DRIZZLE  N/A N/A N/A NW3       29.77R

$$





USA.gov is the U.S. government's official web portal to all federal, state and local government web resources and services.